Regional Weather Roundup
Issued by NWS Cleveland, OH

Home | Current Version | Previous Version | Text Only | Print | Product List | Glossary On
Versions: 1 2 3 4 5 6 7 8 9 10 11 12 13 14 15 16 17 18 19 20 21 22 23 24 25 26 27 28 29 30 31 32 33 34 35 36 37 38 39 40 41 42 43 44 45 46 47 48 49 50
000
ASUS41 KCLE 070512
RWRCLE
OHIO REGIONAL WEATHER ROUNDUP
NATIONAL WEATHER SERVICE WILMINGTON, OH
1200 AM EST SAT DEC 07 2019

NOTE: "FAIR" INDICATES FEW OR NO CLOUDS BELOW 12,000 FEET WITH NO
SIGNIFICANT WEATHER AND/OR OBSTRUCTIONS TO VISIBILITY.

OHZ001>008-015>018-024>027-034-035-043-044-070600-
   NORTHWEST OHIO

CITY           SKY/WX    TMP DP  RH WIND       PRES   REMARKS
DEFIANCE       FAIR      26  21  81 CALM      30.37R
FINDLAY        FAIR      28  20  71 N6        30.35R WCI  22
TOLEDO EXPRESS FAIR      27  19  72 CALM      30.36R
TOLEDO EXEC    FAIR      28  18  66 N6        30.37S WCI  22
LIMA           FAIR      27  21  78 N5        30.34S WCI  22
$$

OHZ009>014-019>023-028>033-038-089-070600-
   NORTHEAST OHIO

CITY           SKY/WX    TMP DP  RH WIND       PRES   REMARKS
CLE-HOPKINS    MOCLDY    34  22  61 N6        30.35R WCI  29
CLE-LAKEFRONT  CLOUDY    34  22  61 N14       30.33R WCI  25
CUY CO. ARPT   CLOUDY    31  20  63 NW7       30.33R WCI  25
LORAIN-ELYRIA  CLOUDY    33  21  61 N5        30.33R WCI  29
ASHTABULA      CLOUDY    32  22  66 NW6       30.30R WCI  26
AKRON-CANTON   MOCLDY    29  23  78 N6        30.29R WCI  23
WOOSTER        FAIR      25  21  85 NW6       30.31R WCI  18
MANSFIELD      FAIR      26  22  84 NW5       30.31R WCI  20
YOUNGSTOWN     FAIR      29  20  69 N8        30.28R WCI  21
$$

OHZ042-051>053-060>062-070>072-077>081-070600-
  SOUTHWEST OHIO

CITY           SKY/WX    TMP DP  RH WIND       PRES   REMARKS
CINC-COVINGTON FAIR      30  25  81 N7        30.33R WCI  23
CINC-LUNKEN    FAIR      28  26  92 CALM      30.37R
HAMILTON       FAIR      25  22  88 CALM      30.36S
DAYTON         FAIR      29  22  75 N6        30.34S WCI  23
WRIGHT-PAT AFB FAIR      28  22  77 CALM      30.34R
DAYTON GENERAL FAIR      31  23  72 NE6       30.33R WCI  25
WILMINGTON     FAIR      28  23  81 N5        30.32S WCI  23
$$

OHZ036-037-039>041-045>050-054>059-063>069-073>076-082>088-070600-
  CENTRAL AND SOUTHEAST OHIO

CITY           SKY/WX    TMP DP  RH WIND       PRES   REMARKS
COLUMBUS       FAIR      28  21  75 N5        30.33R WCI  23
OSU AIRPORT    FAIR      28  21  75 NW6       30.33R WCI  22
BOLTON FIELD   FAIR      25  22  87 NW5       30.34R WCI  19
RICKENBACK AFB FAIR      29  23  76 N5        30.33R WCI  24
NEWARK         FAIR      24  19  81 CALM      30.32R
MARION         FAIR      25  19  78 N7        30.33S WCI  17
LANCASTER      FAIR      20  17  88 CALM      30.33R
ZANESVILLE     FAIR      28  21  75 CALM      30.31R
NEW PHILLY     FAIR      26  21  81 CALM      30.31S
$$



USA.gov is the U.S. government's official web portal to all federal, state and local government web resources and services.